Weather in Denisovka

Russia / Komi Republic     66°12′24″N   55°25′40″E
temp.,
°C
wind,
m/s
gust,
m/s
humid.,
%
clouds,
%
prec.,
mm/h
press.,
hPa
HPBL,
m
21 april, wed
wed2100:00−1sw239516 0.0 102739
03:00−1sw33931 0.0 102835
06:00+1sw35895 0.0 102896
09:00+5ssw468870 0.0 1027173
12:00+8ssw476664 0.0 1027382
15:00+7ssw3671100 0.0 1026100
18:00+5sse448258 0.0 102541
21:00+3sse4786100 0.0 102491
22 april, thu
thu2200:00+2sse5988100 0.0 1022133
03:00+2sse51088100 0.0 1021161
06:00+4sse61380100 0.0 1019390
09:00+6sse81569100 0.0 1017665
12:00+7s91475100 0.0 10161314
15:00+5s81492100 0.1 1016928
18:00+4s81497100 0.0 1016823
21:00+3s71397100 0.2 1016871
23 april, fri
fri2300:00+3ssw71297100 0.2 1016821
03:00+3ssw61190100 0.4 1016548
06:00+4s71385100 0.0 1016499
09:00+5ssw81385100 0.0 1017858
12:00+5ssw81396100 0.0 1017749
15:00+7sw71378100 0.3 10181126
18:00+7wsw487993 0.4 1020206
21:00+4sw1191100 0.7 102219
24 april, sat
sat2400:00+4sw33925 0.0 102322
03:00+2wsw229283 0.0 102410
06:00+4sse2290100 0.0 102529
09:00+6s2586100 0.0 1025131
12:00+12ssw575155 0.0 10241128
15:00+13ssw564621 0.0 10241506
18:00+11sse475670 0.0 1024277
21:00+8sse356995 0.0 102472
25 april, sun
sun2500:00+6sse3375100 0.0 102318
03:00+6ese3477100 0.0 102352
06:00+7ese4973100 0.0 1022267
09:00+10se5954100 0.0 1020905
12:00+12sse684388 0.0 10191940
15:00+11sse5746100 0.0 10181495
18:00+10sse4753100 0.0 1017528
21:00+6se336985 0.0 101639